Location: *
(47.8307°S, 178.3954°E)
Time: 08:54:25
(UTC+00:00)

Nadezhda 3 Rocket - Pass Details

Date: 12 August 2024
Orbit: 957 x 998 km, 82.9° (Epoch: 18 September)

Event Time Altitude Azimuth Distance (km) Brightness Sun altitude
Rises 17:55:32 0° 190° (S) 3,745 6.9 -13.4°
Reaches altitude 10° 17:58:05 10° 190° (S) 2,785 6.2 -13.0°
Maximum altitude 18:04:30 86° 277° (W) 1,001 4.0 -11.9°
Drops below altitude 10° 18:10:47 10° 5° (N) 2,724 6.5 -10.9°
Sets 18:13:15 0° 5° (N) 3,657 7.2 -10.5°
